Weather History for Rolla, ND

Change the Weather History Date:

Thursday, January 3, 2013

  Actual Average (KRUG) Record (KRUG)
Temperature  
Mean Temperature 12 °F -  
Max Temperature 28 °F 15 °F 41 °F (2012)
Min Temperature -4 °F -4 °F -31 °F (1982)
Degree Days  
Heating Degree Days 53    
Moisture  
Dew Point 11 °F    
Average Humidity 81    
Maximum Humidity 100    
Minimum Humidity 59    
Precipitation  
Precipitation 0.00 in - - ()
Sea Level Pressure  
Sea Level Pressure 29.97 in    
Wind  
Wind Speed 14 mph (WSW)    
Max Wind Speed 32 mph    
Max Gust Speed 38 mph    
Visibility 8 miles    
Events Rain , Snow    
Averages and records for this station are not official NWS values.
T = Trace of Precipitation, MM = Missing Value Source: NWS Daily Summary

Daily Weather History Graph

Daily Weather History Graph

Search for Another Location

Airport:

Trip Planner

Search our weather history database for the weather conditions in past years. The results will help you decide how hot, cold, wet, or windy it might be!

Date:

Astronomy

Jan. 03, 2013 Rise Set
Actual Time 8:31 AM CST 4:54 PM CST
Civil Twilight 7:54 AM CST 5:31 PM CST
Nautical Twilight 7:14 AM CST 6:11 PM CST
Astronomical Twilight 6:36 AM CST 6:50 PM CST
Moon No Moon Rise 11:10 AM CST (1/3)
Length of Visible Light 9h 36m
Length of Day
8h 22m
Waning Gibbous, 65% of the Moon is Illuminated
Jan 3
Waning Gibbous
Jan 4
Last Quarter
Jan 11
New
Jan 18
First Quarter
Jan 26
Full

Hourly Weather History & Observations

Time (CST) Temp. Windchill Dew Point Humidity Pressure Visibility Wind Dir Wind Speed Gust Speed Precip Events Conditions
12:15 AM -0.4 °F -13.4 °F -2.2 °F 92% 30.19 in 10.0 mi WSW 6.9 mph - N/A   Partly Cloudy
12:35 AM -2.2 °F -12.5 °F -4.0 °F 92% 30.19 in 10.0 mi SW 4.6 mph - N/A   Clear
12:55 AM 1.4 °F - -0.4 °F 92% 30.19 in 10.0 mi Calm Calm - N/A   Clear
1:15 AM -2.2 °F -10.4 °F -4.0 °F 92% 30.20 in 10.0 mi WSW 3.5 mph - N/A   Clear
1:35 AM -2.2 °F -10.4 °F -4.0 °F 92% 30.19 in 10.0 mi WSW 3.5 mph - N/A   Clear
1:55 AM -4.0 °F -16.3 °F -7.6 °F 85% 30.18 in 10.0 mi SSW 5.8 mph - N/A   Mostly Cloudy
2:15 AM -4.0 °F -17.8 °F -7.6 °F 85% 30.17 in 10.0 mi SSW 6.9 mph - N/A   Scattered Clouds
2:35 AM -4.0 °F -17.8 °F -7.6 °F 85% 30.17 in 10.0 mi SSW 6.9 mph - N/A   Clear
2:55 AM -4.0 °F -17.8 °F -7.6 °F 85% 30.16 in 10.0 mi SSW 6.9 mph - N/A   Clear
3:15 AM -4.0 °F -17.8 °F -7.6 °F 85% 30.16 in 10.0 mi SSW 6.9 mph - N/A   Clear
3:35 AM -4.0 °F -16.3 °F -9.4 °F 78% 30.16 in 10.0 mi South 5.8 mph - N/A   Partly Cloudy
3:55 AM -2.2 °F -12.5 °F -4.0 °F 92% 30.16 in 10.0 mi SSW 4.6 mph - N/A   Clear
4:15 AM -0.4 °F -13.4 °F -2.2 °F 92% 30.15 in 10.0 mi SW 6.9 mph - N/A   Clear
4:35 AM -0.4 °F -13.4 °F -2.2 °F 92% 30.14 in 10.0 mi SW 6.9 mph - N/A   Partly Cloudy
4:55 AM 5.0 °F -4.1 °F 3.2 °F 92% 30.12 in 10.0 mi South 4.6 mph - N/A   Mostly Cloudy
5:15 AM 8.6 °F -6.3 °F 6.8 °F 92% 30.12 in 10.0 mi WSW 11.5 mph - N/A Snow Light Snow
5:35 AM 8.6 °F -3.7 °F 6.8 °F 92% 30.10 in 10.0 mi SW 8.1 mph - N/A   Overcast
5:55 AM 8.6 °F -8.3 °F 6.8 °F 92% 30.08 in 10.0 mi WSW 15.0 mph - N/A   Mostly Cloudy
6:15 AM 8.6 °F -8.9 °F 6.8 °F 92% 30.06 in 10.0 mi WSW 16.1 mph - N/A   Clear
6:35 AM 8.6 °F -4.7 °F 8.6 °F 100% 30.08 in 10.0 mi West 9.2 mph - N/A   Clear
6:55 AM 10.4 °F - 8.6 °F 92% 30.06 in 10.0 mi Calm Calm - N/A   Clear
7:15 AM 10.4 °F -9.9 °F 10.4 °F 100% 30.04 in 7.0 mi WSW 24.2 mph - N/A   Clear
7:35 AM 12.2 °F -5.8 °F 10.4 °F 92% 30.04 in 9.0 mi WSW 19.6 mph - N/A   Clear
7:55 AM 14.0 °F -2.5 °F 12.2 °F 93% 30.05 in 10.0 mi WSW 17.3 mph - N/A   Clear
8:15 AM 14.0 °F -0.8 °F 14.0 °F 100% 30.04 in 10.0 mi WSW 13.8 mph - N/A   Scattered Clouds
8:35 AM 14.0 °F -4.7 °F 14.0 °F 100% 30.02 in 1.5 mi WSW 23.0 mph 27.6 mph N/A   Overcast
8:55 AM 14.0 °F -5.5 °F 14.0 °F 100% 30.00 in 0.5 mi WSW 25.3 mph 31.1 mph N/A Snow Snow
9:15 AM 14.0 °F -6.2 °F 14.0 °F 100% 29.99 in 0.2 mi WSW 27.6 mph 33.4 mph N/A Snow Heavy Snow
9:35 AM 14.0 °F -6.2 °F 14.0 °F 100% 29.98 in 0.8 mi WSW 27.6 mph 33.4 mph N/A   Overcast
9:55 AM 14.0 °F -5.8 °F 14.0 °F 100% 29.98 in 1.0 mi WSW 26.5 mph - N/A   Mostly Cloudy
10:35 AM 15.8 °F -2.7 °F 14.0 °F 93% 29.98 in 7.0 mi WSW 24.2 mph - N/A   Clear
10:55 AM 15.8 °F -1.9 °F 14.0 °F 93% 29.97 in 7.0 mi SW 21.9 mph 27.6 mph N/A   Clear
11:15 AM 15.8 °F -3.1 °F 15.8 °F 100% 29.96 in 3.0 mi WSW 25.3 mph 31.1 mph N/A   Clear
11:35 AM 17.6 °F -0.3 °F 15.8 °F 93% 29.94 in 4.0 mi SW 24.2 mph - N/A   Clear
11:55 AM 17.6 °F -1.6 °F 15.8 °F 93% 29.92 in 2.0 mi WSW 28.8 mph 33.4 mph N/A Snow Light Snow
12:15 PM 19.4 °F 1.1 °F 15.8 °F 86% 29.91 in 2.0 mi WSW 27.6 mph - N/A Snow Light Snow
12:35 PM 19.4 °F 1.1 °F 15.8 °F 86% 29.90 in 3.0 mi WSW 27.6 mph - N/A   Haze
12:55 PM 23.0 °F 5.7 °F 17.6 °F 80% 29.89 in 2.0 mi WSW 28.8 mph 35.7 mph N/A   Haze
1:15 PM 23.0 °F 5.1 °F 17.6 °F 80% 29.88 in 2.0 mi WSW 31.1 mph 36.8 mph N/A Rain Light Freezing Rain
1:35 PM 24.8 °F 7.3 °F 17.6 °F 74% 29.86 in 2.0 mi WSW 32.2 mph 38.0 mph N/A Rain Light Freezing Rain
1:55 PM 26.6 °F 10.3 °F 17.6 °F 69% 29.86 in 3.0 mi WSW 29.9 mph 38.0 mph N/A   Haze
2:15 PM 26.6 °F 9.8 °F 17.6 °F 69% 29.85 in 3.0 mi West 32.2 mph 38.0 mph N/A Rain Light Freezing Rain
2:35 PM 26.6 °F 10.6 °F 17.6 °F 69% 29.85 in 3.0 mi WSW 28.8 mph 36.8 mph N/A Rain Light Freezing Rain
2:55 PM 24.8 °F 8.4 °F 17.6 °F 74% 29.85 in 8.0 mi WSW 27.6 mph - N/A   Clear
3:15 PM 24.8 °F 8.1 °F 17.6 °F 74% 29.85 in 7.0 mi West 28.8 mph 33.4 mph N/A   Clear
3:55 PM 26.6 °F 11.1 °F 15.8 °F 64% 29.84 in 10.0 mi West 26.5 mph 32.2 mph N/A   Clear
4:15 PM 26.6 °F 10.8 °F 15.8 °F 64% 29.84 in 10.0 mi West 27.6 mph 32.2 mph N/A   Clear
4:35 PM 26.6 °F 11.1 °F 15.8 °F 64% 29.84 in 9.0 mi WSW 26.5 mph 34.5 mph N/A   Clear
4:55 PM 24.8 °F 8.4 °F 15.8 °F 69% 29.82 in 10.0 mi WSW 27.6 mph 34.5 mph N/A   Clear
5:15 PM 24.8 °F 8.4 °F 15.8 °F 69% 29.83 in 5.0 mi West 27.6 mph 34.5 mph N/A   Haze
5:35 PM 24.8 °F 8.4 °F 15.8 °F 69% 29.84 in 10.0 mi West 27.6 mph 34.5 mph N/A   Clear
5:55 PM 24.8 °F 9.3 °F 15.8 °F 69% 29.83 in 10.0 mi West 24.2 mph 31.1 mph N/A   Clear
6:15 PM 24.8 °F 9.6 °F 15.8 °F 69% 29.83 in 10.0 mi West 23.0 mph - N/A   Clear
6:35 PM 24.8 °F 10.0 °F 15.8 °F 69% 29.83 in 10.0 mi West 21.9 mph - N/A   Clear
6:55 PM 24.8 °F 10.7 °F 15.8 °F 69% 29.84 in 10.0 mi West 19.6 mph 25.3 mph N/A   Clear
7:15 PM 24.8 °F 11.1 °F 15.8 °F 69% 29.84 in 10.0 mi West 18.4 mph - N/A   Clear
7:35 PM 24.8 °F 10.7 °F 15.8 °F 69% 29.85 in 10.0 mi West 19.6 mph - N/A   Clear
7:55 PM 26.6 °F 13.8 °F 15.8 °F 64% 29.85 in 10.0 mi West 17.3 mph - N/A   Clear
8:15 PM 26.6 °F 13.1 °F 15.8 °F 64% 29.86 in 10.0 mi WNW 19.6 mph 23.0 mph N/A   Clear
8:35 PM 28.4 °F 16.2 °F 15.8 °F 59% 29.86 in 10.0 mi WNW 17.3 mph - N/A   Clear
8:55 PM 26.6 °F 14.3 °F 15.8 °F 64% 29.86 in 10.0 mi WNW 16.1 mph - N/A   Clear
9:15 PM 26.6 °F 16.2 °F 15.8 °F 64% 29.87 in 10.0 mi WNW 11.5 mph - N/A   Clear
9:35 PM 26.6 °F 16.2 °F 15.8 °F 64% 29.86 in 10.0 mi WNW 11.5 mph - N/A   Clear
9:55 PM 24.8 °F 14.0 °F 15.8 °F 69% 29.88 in 10.0 mi NW 11.5 mph - N/A   Clear
10:15 PM 24.8 °F 14.6 °F 15.8 °F 69% 29.89 in 10.0 mi WNW 10.4 mph - N/A   Clear
10:35 PM 26.6 °F 15.7 °F 15.8 °F 64% 29.89 in 10.0 mi NW 12.7 mph - N/A   Clear
10:55 PM 26.6 °F 14.3 °F 15.8 °F 64% 29.90 in 10.0 mi NW 16.1 mph - N/A   Clear
11:15 PM 26.6 °F 14.3 °F 15.8 °F 64% 29.90 in 10.0 mi NW 16.1 mph - N/A   Clear
11:35 PM 26.6 °F 14.7 °F 15.8 °F 64% 29.91 in 10.0 mi NW 15.0 mph - N/A   Clear
11:55 PM 26.6 °F 16.2 °F 15.8 °F 64% 29.91 in 10.0 mi NW 11.5 mph - N/A   Clear